Location: Unspecified
(0.0000°N, 0.0000°E)
Time: 18:57:41
(UTC+00:00)

Vanguard 3 - Pass Details

Date: 26 November 2019
Orbit: 508 x 3263 km, 33.3° (Epoch: 08 December)

Event Time Altitude Azimuth Distance (km) Brightness Sun altitude
Rises 05:43:23 0° 197° (SSW) 3,285 10.3 -0.9°
Reaches altitude 10° 05:46:34 10° 174° (S) 2,696 10.2 -0.1°
Maximum altitude 05:50:33 16° 137° (SE) 2,704 11.1 0.8°
Drops below altitude 10° 05:55:49 10° 102° (ESE) 3,769 12.8 2.0°
Sets 06:01:39 0° 84° (E) 5,406 12.7 3.4°
